CW9546 Weather Reports


Display with metric or nautical units.
time (UTC)temp
F
wind
direction
speed
MPH
gust
MPH
rain 1hr
in
rain 24hr
in
rain mn
in
humidity
%
barometer
mb
20260508144049 50 137 1.0 0.0 0.00 0.00 0.00 76 1018.5
20260508143134 50 140 1.0 0.0 0.00 0.00 0.00 75 1018.0
20260508142045 50 198 1.0 0.0 0.00 0.00 0.00 75 1017.7
20260508141252 50 139 1.0 0.0 0.00 0.00 0.00 75 1017.7
20260508140038 49 134 0.0 0.0 0.00 0.00 0.00 79 1017.5
20260508135116 48 247 0.0 0.0 0.00 0.00 0.00 80 1017.3
20260508134105 48 247 0.0 0.0 0.00 0.00 0.00 79 1017.3
20260508133047 47 247 0.0 0.0 0.00 0.00 0.00 80 1017.1
20260508132038 47 247 0.0 0.0 0.00 0.00 0.00 80 1017.0
20260508131035 47 248 0.0 0.0 0.00 0.00 0.00 80 1017.0
20260508130040 47 248 0.0 0.0 0.00 0.00 0.00 80 1016.9
20260508125039 47 248 0.0 0.0 0.00 0.00 0.00 80 1016.6
20260508124102 47 248 0.0 0.0 0.00 0.00 0.00 81 1016.6
20260508123051 46 248 0.0 0.0 0.00 0.00 0.00 81 1016.5
20260508122040 46 228 0.0 0.0 0.00 0.00 0.00 80 1016.5
20260508121034 46 228 0.0 0.0 0.00 0.00 0.00 80 1016.5
20260508120057 46 228 0.0 0.0 0.00 0.00 0.00 81 1016.5
20260508115030 46 328 0.0 0.0 0.00 0.00 0.00 80 1016.4
20260508114047 46 328 0.0 0.0 0.00 0.00 0.00 80 1016.4
20260508113123 46 328 0.0 0.0 0.00 0.00 0.00 80 1016.2
20260508112036 46 328 0.0 0.0 0.00 0.00 0.00 80 1016.1
20260508111044 46 328 0.0 0.0 0.00 0.00 0.00 79 1016.1
20260508110105 46 328 0.0 0.0 0.00 0.00 0.00 79 1016.0
20260508105056 46 328 0.0 0.0 0.00 0.00 0.00 79 1016.0
20260508104105 46 328 0.0 0.0 0.00 0.00 0.00 79 1016.0
20260508103109 46 328 0.0 0.0 0.00 0.00 0.00 79 1015.9
20260508102042 46 328 0.0 0.0 0.00 0.00 0.00 79 1015.8
20260508101044 46 328 0.0 0.0 0.00 0.00 0.00 79 1015.8
20260508100059 46 328 0.0 0.0 0.00 0.00 0.00 79 1015.8
20260508095033 47 328 0.0 0.0 0.00 0.00 0.00 79 1015.8
20260508094040 47 328 1.0 0.0 0.00 0.00 0.00 78 1015.8